Flag for Germany Weather past 2 weeks in Dessau-Rosslau, Saxony-Anhalt, Germany

52 °F

Light rain. Passing clouds.

Feels Like: 44 °F
Forecast: 41 / 49 °F
Wind: 35 mph from Southwest

Location: Leipzig-Schkeuditz

Current Time: Nov 30, 2015 at 12:26:42 AM

Latest Report: Nov 29, 2015 at 11:50 PM

Visibility: N/A

Pressure: 29.65 "Hg

Humidity: 77%

Dew point: 45 °F

Location of Dessau-RosslauLocation

Historic Weather in Dessau-Rosslau — Graph


Dessau-Rosslau temperature yesterday

Maximum temperature yesterday: 52 °F (at 10:50 PM)
Minimum temperature yesterday: 37 °F (at 12:20 AM)
Average temperature yesterday: 43 °F

Past Weeks' High & Low Weather Summary

High59 °F (Nov 17, 1:50 PM)100% (Nov 14, 11:50 PM)30.24 "Hg (Nov 14, 11:50 PM)
Low28 °F (Nov 23, 10:20 PM)55% (Nov 18, 1:20 PM)29.36 "Hg (Nov 21, 12:20 PM)
Average42 °F87%29.81 "Hg
* Reported Nov 14 10:20 PM — Nov 29 10:50 PM, Dessau-Rosslau, Weather by CustomWeather, © 2015

Note: Actual official high and low records may vary slightly from our data, if they occured in-between our weather recording intervals... More about our weather records


Dessau-Rosslau weather history for previous 24 hours

Time TempWeatherWind HumidityBarometerVisibility
10:50 PM
Sun, Nov 29
52 °FPassing clouds.30 mph72%29.65 "HgN/A
10:20 PM50 °FLight rain. Passing clouds.30 mph76%29.65 "HgN/A
9:50 PM50 °FPassing clouds.30 mph76%29.68 "HgN/A
9:20 PM50 °FPassing clouds.30 mph76%29.68 "HgN/A
8:50 PM50 °FPartly cloudy.29 mph76%29.71 "HgN/A
8:20 PM48 °FOvercast.25 mph82%29.71 "HgN/A
7:50 PM48 °FOvercast.25 mph82%29.71 "HgN/A
7:20 PM48 °FLight rain. Partly cloudy.20 mph82%29.74 "HgN/A
6:50 PM46 °FLight rain. Passing clouds.21 mph82%29.74 "HgN/A
6:20 PM46 °FLight rain. Partly cloudy.20 mph82%29.74 "HgN/A
5:50 PM45 °FLight rain. Partly cloudy.16 mph87%29.74 "HgN/A
5:20 PM46 °FLight rain. Partly cloudy.16 mph82%29.77 "HgN/A
4:50 PM45 °FPartly cloudy.17 mph81%29.77 "HgN/A
4:20 PM45 °FPartly cloudy.18 mph81%29.77 "HgN/A
3:50 PM45 °FBroken clouds.15 mph81%29.77 "HgN/A
3:20 PM45 °FBroken clouds.18 mph81%29.80 "HgN/A
2:50 PM45 °FBroken clouds.20 mph81%29.80 "HgN/A
2:20 PM45 °FPartly sunny.18 mph81%29.80 "HgN/A
1:50 PM45 °FPartly sunny.21 mph81%29.80 "HgN/A
1:20 PM43 °FMostly cloudy.21 mph87%29.80 "HgN/A
12:50 PM45 °FMostly cloudy.18 mph76%29.80 "HgN/A
12:20 PM43 °FPartly sunny.17 mph81%29.80 "HgN/A
11:50 AM43 °FPartly sunny.24 mph81%29.80 "HgN/A
11:20 AM43 °FPartly sunny.21 mph81%29.80 "HgN/A
10:20 AM43 °FPartly sunny.18 mph76%29.83 "HgN/A
9:50 AM43 °FMore clouds than sun.18 mph76%29.83 "HgN/A
9:20 AM41 °FMostly cloudy.21 mph81%29.83 "HgN/A
8:50 AM41 °FMostly cloudy.21 mph81%29.83 "HgN/A
8:20 AM41 °FMore clouds than sun.21 mph81%29.80 "HgN/A
7:50 AM41 °FMore clouds than sun.17 mph81%29.83 "HgN/A
7:20 AM41 °FPartly cloudy.15 mph81%29.83 "HgN/A
6:50 AM41 °FPassing clouds.20 mph81%29.80 "HgN/A
6:20 AM39 °FPassing clouds.20 mph87%29.80 "HgN/A
5:20 AM39 °FLight rain. Passing clouds.23 mph87%29.80 "HgN/A
4:50 AM39 °FLight rain. Partly cloudy.18 mph81%29.83 "HgN/A
4:20 AM39 °FLight rain. Passing clouds.18 mph81%29.83 "HgN/A
3:50 AM39 °FPassing clouds.20 mph81%29.83 "HgN/A
3:20 AM39 °FPartly cloudy.20 mph75%29.86 "HgN/A
2:50 AM37 °FClear.20 mph81%29.83 "Hg10 mi
2:20 AM37 °FClear.18 mph81%29.86 "Hg10 mi
1:50 AM37 °FClear.15 mph81%29.86 "Hg10 mi
12:50 AM37 °FClear.18 mph81%29.92 "Hg10 mi
12:20 AM37 °FClear.13 mph81%29.92 "Hg10 mi
Weather by CustomWeather, © 2015

See weather overviewHow to use our weather pages